| time (UTC) | temp F | wind direction | speed knots | gust knots | rain 1hr in | rain 24hr in | rain mn in | humidity % | barometer mb |
| 20260502123107 | 50 | 302 | 0.0 | 3.5 | 0.00 | 0.79 | 0.00 | 92 | 1021.4 |
| 20260502121550 | 50 | 261 | 0.0 | 4.3 | 0.00 | 0.79 | 0.00 | 92 | 1021.1 |
| 20260502114507 | 49 | 234 | 0.0 | 3.5 | 0.00 | 1.04 | 0.00 | 92 | 1020.9 |
| 20260502113059 | 49 | 36 | 0.0 | 6.1 | 0.00 | 1.04 | 0.00 | 92 | 1020.8 |
| 20260502111547 | 50 | 229 | 0.0 | 5.2 | 0.00 | 1.04 | 0.00 | 92 | 1020.7 |
| 20260502110029 | 50 | 152 | 0.9 | 4.3 | 0.00 | 1.18 | 0.00 | 92 | 1020.6 |
| 20260502104535 | 50 | 31 | 0.0 | 4.3 | 0.00 | 1.18 | 0.00 | 93 | 1020.5 |
| 20260502103114 | 50 | 267 | 0.0 | 0.9 | 0.00 | 1.18 | 0.00 | 92 | 1020.4 |
| 20260502101554 | 50 | 267 | 0.0 | 0.0 | 0.00 | 1.18 | 0.00 | 92 | 1020.2 |
| 20260502071513 | 52 | 31 | 0.9 | 5.2 | 0.00 | 1.67 | 0.00 | 91 | 1018.4 |
| 20260502064549 | 52 | 309 | 0.9 | 4.3 | 0.00 | 1.89 | 0.00 | 91 | 1018.4 |
| 20260502063031 | 52 | 298 | 0.9 | 5.2 | 0.00 | 1.89 | 0.00 | 91 | 1018.3 |
| 20260502061517 | 52 | 34 | 2.6 | 7.0 | 0.00 | 1.89 | 0.00 | 92 | 1018.3 |
| 20260502060003 | 52 | 24 | 2.6 | 6.1 | 0.00 | 1.89 | 0.00 | 91 | 1018.4 |
| 20260502054554 | 52 | 48 | 0.9 | 2.6 | 0.00 | 1.89 | 0.00 | 91 | 1018.6 |
| 20260502053040 | 52 | 26 | 0.0 | 3.5 | 0.00 | 1.89 | 0.00 | 90 | 1018.7 |
| 20260502051546 | 53 | 5 | 0.9 | 4.3 | 0.00 | 1.89 | 0.00 | 89 | 1018.6 |
| 20260502050007 | 53 | 5 | 0.9 | 5.2 | 0.00 | 1.89 | 1.89 | 89 | 1018.5 |
| 20260502044608 | 53 | 16 | 0.9 | 6.1 | 0.00 | 1.89 | 1.89 | 89 | 1018.5 |
| 20260502043045 | 54 | 9 | 1.7 | 5.2 | 0.00 | 1.89 | 1.89 | 88 | 1018.4 |
| 20260502041530 | 54 | 16 | 4.3 | 7.8 | 0.00 | 1.89 | 1.89 | 88 | 1018.4 |
| 20260502040015 | 54 | 9 | 3.5 | 9.6 | 0.00 | 1.89 | 1.89 | 88 | 1018.2 |
| 20260502034606 | 54 | 5 | 1.7 | 9.6 | 0.00 | 1.89 | 1.89 | 88 | 1017.9 |
| 20260502033055 | 54 | 9 | 2.6 | 9.6 | 0.00 | 1.89 | 1.89 | 88 | 1017.8 |
| 20260502031552 | 54 | 17 | 4.3 | 8.7 | 0.00 | 1.89 | 1.89 | 87 | 1017.4 |
| 20260502030020 | 55 | 17 | 4.3 | 8.7 | 0.00 | 1.89 | 1.89 | 87 | 1017.1 |
| 20260502024507 | 55 | 9 | 4.3 | 11.3 | 0.00 | 1.89 | 1.89 | 88 | 1016.9 |
| 20260502023100 | 55 | 17 | 3.5 | 13.0 | 0.00 | 1.89 | 1.89 | 90 | 1016.9 |
| 20260502021544 | 55 | 16 | 3.5 | 9.6 | 0.00 | 1.89 | 1.89 | 90 | 1016.6 |
| 20260502020029 | 55 | 9 | 4.3 | 11.3 | 0.00 | 1.89 | 1.89 | 90 | 1016.4 |
| 20260502014522 | 55 | 5 | 7.0 | 15.6 | 0.00 | 1.89 | 1.89 | 90 | 1016.3 |
| 20260502013112 | 56 | 15 | 5.2 | 10.4 | 0.00 | 1.89 | 1.89 | 91 | 1016.1 |
| 20260502011547 | 56 | 15 | 2.6 | 10.4 | 0.00 | 1.89 | 1.89 | 91 | 1015.8 |
| 20260502010027 | 56 | 5 | 4.3 | 13.0 | 0.00 | 1.89 | 1.89 | 91 | 1015.6 |
| 20260502004512 | 56 | 5 | 5.2 | 11.3 | 0.00 | 1.89 | 1.89 | 90 | 1015.4 |
| 20260502003102 | 56 | 9 | 3.5 | 13.0 | 0.00 | 1.89 | 1.89 | 91 | 1015.1 |
| 20260502001548 | 57 | 9 | 4.3 | 13.0 | 0.00 | 1.89 | 1.89 | 91 | 1014.8 |
| 20260502000033 | 57 | 9 | 5.2 | 13.0 | 0.00 | 1.89 | 1.89 | 92 | 1014.1 |
| 20260501234524 | 57 | 14 | 0.9 | 13.9 | 0.00 | 1.89 | 1.89 | 92 | 1014.0 |
| 20260501233003 | 58 | 5 | 5.2 | 9.6 | 0.00 | 1.89 | 1.89 | 93 | 1013.8 |
| 20260501231600 | 58 | 15 | 4.3 | 8.7 | 0.01 | 1.89 | 1.89 | 92 | 1013.8 |
| 20260501230040 | 58 | 15 | 5.2 | 13.9 | 0.03 | 1.89 | 1.89 | 93 | 1013.7 |
| 20260501224526 | 58 | 9 | 6.1 | 11.3 | 0.05 | 1.89 | 1.89 | 93 | 1013.9 |
| 20260501223011 | 58 | 9 | 4.3 | 13.0 | 0.06 | 1.89 | 1.89 | 93 | 1013.3 |
| 20260501221602 | 58 | 15 | 5.2 | 11.3 | 0.05 | 1.88 | 1.88 | 94 | 1012.8 |
| 20260501220049 | 58 | 15 | 4.3 | 10.4 | 0.04 | 1.86 | 1.86 | 93 | 1013.2 |
| 20260501214546 | 59 | 15 | 3.5 | 10.4 | 0.02 | 1.84 | 1.84 | 93 | 1013.0 |
| 20260501213019 | 59 | 9 | 1.7 | 13.0 | 0.01 | 1.83 | 1.83 | 93 | 1012.8 |
| 20260501211511 | 59 | 9 | 3.5 | 9.6 | 0.01 | 1.83 | 1.83 | 92 | 1012.6 |
| 20260501210056 | 60 | 10 | 4.3 | 10.4 | 0.00 | 1.82 | 1.82 | 91 | 1012.5 |
| 20260501204542 | 60 | 5 | 2.6 | 10.4 | 0.00 | 1.82 | 1.82 | 91 | 1012.3 |
| 20260501203027 | 60 | 15 | 5.2 | 11.3 | 0.00 | 1.82 | 1.82 | 90 | 1011.1 |
| 20260501201513 | 61 | 15 | 4.3 | 13.0 | 0.00 | 1.82 | 1.82 | 90 | 1011.1 |
| 20260501200103 | 61 | 9 | 6.1 | 13.9 | 0.00 | 1.82 | 1.82 | 91 | 1010.7 |
| 20260501194558 | 61 | 10 | 5.2 | 16.5 | 0.00 | 1.82 | 1.82 | 93 | 1010.9 |
| 20260501193034 | 61 | 9 | 3.5 | 11.3 | 0.00 | 1.82 | 1.82 | 94 | 1011.3 |
| 20260501191520 | 60 | 15 | 2.6 | 7.0 | 0.01 | 1.82 | 1.82 | 94 | 1012.7 |
| 20260501190005 | 60 | 9 | 1.7 | 11.3 | 0.06 | 1.82 | 1.82 | 95 | 1012.1 |
| 20260501184554 | 59 | 9 | 4.3 | 8.7 | 0.16 | 1.82 | 1.82 | 95 | 1012.1 |
| 20260501183039 | 59 | 9 | 4.3 | 11.3 | 0.23 | 1.82 | 1.82 | 95 | 1011.5 |
| 20260501181524 | 59 | 9 | 3.5 | 9.6 | 0.25 | 1.81 | 1.81 | 95 | 1012.1 |
| 20260501180018 | 59 | 9 | 4.3 | 12.2 | 0.20 | 1.76 | 1.76 | 95 | 1012.7 |
| 20260501174612 | 59 | 9 | 3.5 | 6.1 | 0.10 | 1.66 | 1.66 | 94 | 1013.0 |
| 20260501173101 | 60 | 5 | 1.7 | 7.8 | 0.03 | 1.59 | 1.59 | 94 | 1012.1 |
| 20260501171545 | 60 | 13 | 4.3 | 11.3 | 0.00 | 1.56 | 1.56 | 94 | 1012.0 |
| 20260501170017 | 61 | 15 | 3.5 | 9.6 | 0.00 | 1.56 | 1.56 | 94 | 1011.9 |
| 20260501164505 | 61 | 21 | 3.5 | 7.0 | 0.00 | 1.56 | 1.56 | 95 | 1011.8 |
| 20260501163053 | 60 | 23 | 3.5 | 11.3 | 0.12 | 1.56 | 1.56 | 95 | 1011.3 |
| 20260501161542 | 60 | 9 | 7.0 | 11.3 | 0.13 | 1.56 | 1.56 | 95 | 1012.0 |
| 20260501160041 | 61 | 5 | 6.1 | 13.0 | 0.14 | 1.56 | 1.56 | 95 | 1011.4 |
| 20260501154510 | 61 | 60 | 5.2 | 7.8 | 0.14 | 1.56 | 1.56 | 96 | 1010.8 |
| 20260501153105 | 60 | 11 | 7.8 | 13.0 | 0.02 | 1.44 | 1.44 | 95 | 1015.1 |
| 20260501151549 | 60 | 17 | 5.2 | 11.3 | 0.02 | 1.43 | 1.43 | 95 | 1012.8 |
| 20260501150030 | 60 | 17 | 6.1 | 11.3 | 0.06 | 1.42 | 1.42 | 95 | 1012.6 |
| 20260501144520 | 60 | 9 | 3.5 | 9.6 | 0.09 | 1.42 | 1.42 | 95 | 1012.4 |
| 20260501143002 | 60 | 11 | 6.1 | 11.3 | 0.12 | 1.42 | 1.42 | 95 | 1013.0 |